Temperature
13 12 12 12 12 12 12 11 11 11 10 10 10 10 10 11 11 11 11 11 11 11 11 11 11 11 11 11 11 11 11 11 11 11 11 11 11 11
12 12 12 12 12 12 11 11 11 11 10 10 10 10 10 10 10 10 11 10 10 10 10 11 10 10 10 11 11 11 11 10 10 10 10 10 10 10
12 12 12 12 12 11 11 11 11 10 10 10 10 10 10 10 10 10 10 10 10 10 10 10 10 10 10 10 10 10 10 10 10 10 10 10 10 10
12 12 12 12 11 11 11 11 10 10 10 10 10 10 10 10 10 10 10 10 10 10 10 10 10 10 10 10 10 10 10 10 10 10 10 10 10 10
12 12 12 11 11 11 11 11 10 10 10 10 10 10 10 10 10 10 10 10 10 10 10 10 10 10 10 10 10 10 10 10 10 10 10 10 10 10
12 12 11 11 11 11 11 10 10 10 10 10 10 10 10 9 9 9 10 9 10 9 10 10 10 10 10 10 10 10 10 10 10 10 10 10 10 10
12 11 11 11 11 11 11 10 10 10 10 9 9 9 9 9 9 9 9 9 9 9 9 9 9 9 9 9 9 9 9 9 9 9 9 9 9 9
11 11 11 11 11 11 10 10 10 10 10 9 9 9 9 9 9 9 9 9 9 9 9 9 9 9 9 9 9 9 9 9 9 9 9 9 9 9
11 11 11 11 10 10 10 10 10 9 9 9 9 9 9 9 9 9 8 8 9 8 8 9 9 9 9 9 9 9 9 9 9 9 9 9 9 9
11 10 10 10 10 10 10 10 9 9 9 9 9 9 9 9 8 8 8 8 8 8 8 8 9 9 9 9 8 8 8 8 8 8 8 8 8 9
10 10 10 10 10 9 9 9 9 9 9 9 9 9 8 8 8 8 8 8 8 8 8 8 8 8 8 8 8 8 8 8 8 8 8 8 8 8
10 9 9 9 9 9 9 9 9 9 9 8 8 8 8 8 8 8 8 7 7 7 8 8 8 8 8 8 8 8 8 8 8 8 8 8 8 8
9 9 9 9 9 8 8 8 8 8 8 8 8 8 8 8 8 7 7 7 7 7 7 7 7 7 7 7 8 8 8 8 8 8 8 8 7 7
9 9 9 8 8 8 8 8 8 7 7 7 7 7 7 7 7 7 7 7 7 7 7 7 6 6 6 6 7 7 7 7 7 7 7 7 7 7
8 8 8 8 8 7 7 7 7 7 7 7 7 7 6 6 6 6 6 6 6 6 6 6 6 6 6 6 6 6 7 7 7 7 7 7 6 6
8 7 7 7 7 7 7 7 6 6 6 6 6 6 6 6 6 6 6 6 6 6 6 6 6 6 6 6 6 6 6 6 6 6 6 6 6 6
7 7 7 7 6 6 6 6 6 6 6 5 5 5 5 5 5 5 5 5 5 5 5 5 5 5 5 5 5 5 6 6 6 6 5 6 6 6
7 7 6 6 6 6 6 5 5 5 5 5 5 5 5 5 5 5 5 5 5 5 5 5 5 5 5 5 5 5 5 5 5 5 5 5 5 5
6 6 6 6 6 5 5 5 5 5 5 5 5 4 4 4 4 4 4 4 4 4 4 4 4 4 4 4 5 5 4 5 5 5 4 4 4 5
6 6 5 5 5 5 5 5 5 4 4 4 4 4 4 4 4 4 4 4 4 4 4 4 4 4 3 3 4 4 4 4 4 4 4 4 4 4
6 5 5 5 5 5 5 4 4 4 4 4 4 4 4 4 3 3 3 3 3 3 3 4 4 3 3 3 3 4 4 4 3 3 3 3 3 3
5 5 5 5 4 4 4 4 4 4 4 4 4 4 3 3 3 3 3 3 3 3 3 3 3 3 3 3 3 3 3 3 3 3 3 2 2 2
5 5 5 4 4 4 4 4 4 4 4 4 4 3 3 3 3 3 3 3 3 3 2 2 3 2 2 2 2 2 2 2 2 2 2 2 2 2
Wind_Speed
2 2 1 1 1 1 2 2 3 1 2 2 2 2 3 3 4 3 3 3 3 3 3 4 5 5 5 4 4 4 4 5 5 5 5 5 5 5
2 2 1 1 1 1 2 1 2 3 2 2 2 2 3 3 4 4 3 4 4 3 3 3 4 4 4 4 4 4 5 5 5 5 5 5 6 6
2 2 2 2 1 1 1 1 1 2 2 2 1 2 2 2 3 4 4 3 4 4 3 3 4 4 4 4 4 4 5 5 5 5 6 6 6 6
3 3 3 2 2 1 2 2 2 2 2 2 1 2 2 3 3 3 3 3 4 4 3 3 4 4 4 4 4 4 5 5 5 6 6 6 7 7
4 4 4 4 3 2 2 2 2 1 1 2 2 1 1 2 2 2 3 3 4 4 4 4 5 5 5 5 5 5 5 5 6 6 6 7 7 8
4 4 4 5 5 4 3 3 2 2 1 1 1 1 1 2 1 1 2 2 3 3 4 5 5 6 5 5 5 5 6 6 6 6 6 7 8 8
3 3 4 5 5 5 3 4 4 3 2 2 1 1 1 1 1 1 1 2 2 2 3 3 4 4 5 5 5 6 6 7 6 7 7 7 8 8
3 3 3 3 4 5 5 5 6 4 4 3 2 3 3 2 1 1 0 1 2 2 2 3 2 2 4 4 5 5 6 6 6 7 8 8 8 8
4 3 2 2 3 2 3 4 4 5 5 5 4 5 4 4 3 2 2 2 3 2 1 2 2 2 4 5 6 6 6 6 6 7 7 7 8 8
3 3 3 2 2 3 3 2 1 2 3 3 4 4 4 4 4 3 3 2 1 1 0 1 2 2 3 4 5 5 5 6 6 6 7 7 7 7
1 2 2 2 3 3 3 2 1 2 2 3 3 3 2 2 3 3 1 1 1 2 1 1 2 2 2 3 4 5 5 6 7 7 7 6 7 7
0 1 2 2 3 4 3 3 3 2 1 0 0 0 1 0 1 2 3 2 1 2 2 1 1 1 2 2 3 4 5 6 7 7 7 7 7 5
2 1 1 3 3 4 3 2 2 2 1 1 1 0 1 1 0 0 2 3 3 3 2 1 1 1 1 3 3 3 4 5 5 6 7 8 7 4
3 2 1 2 3 3 2 1 1 2 2 1 1 1 1 1 1 1 1 2 3 4 3 2 2 2 2 3 3 3 3 4 4 5 6 7 6 6
3 3 3 3 2 2 2 2 3 2 2 1 0 1 2 2 1 1 1 1 2 3 2 2 2 2 2 3 3 3 3 4 4 4 4 4 4 4
2 3 4 3 2 2 2 1 1 2 2 1 1 1 1 1 1 1 1 1 1 3 2 3 3 3 3 4 4 4 4 3 4 4 4 4 5 4
3 2 2 2 2 1 1 1 1 1 1 1 1 1 1 1 2 1 1 1 1 2 3 3 3 3 4 4 4 5 4 4 4 4 4 5 5 5
5 3 3 3 3 3 2 1 1 1 1 1 1 1 1 1 2 2 1 1 2 3 3 3 2 2 2 3 5 5 4 4 4 4 3 4 6 5
4 4 4 4 3 3 3 3 2 2 2 2 2 2 2 2 1 2 2 2 2 3 3 2 2 1 3 5 4 4 4 4 4 4 4 4 6 6
3 4 4 4 3 3 3 3 2 2 2 2 2 2 2 2 2 2 2 3 3 3 3 3 2 3 4 4 4 4 6 4 4 5 5 5 5 7
4 4 4 4 4 4 4 3 3 3 3 3 3 3 3 3 3 3 3 4 3 3 4 5 5 6 3 2 3 4 4 5 5 4 4 4 5 4
4 4 4 4 4 4 4 3 3 3 4 4 3 3 3 3 4 4 4 3 3 4 5 4 4 3 2 4 5 5 5 5 5 6 6 5 3 3
5 5 5 4 4 4 4 4 4 4 4 4 4 4 3 4 3 3 4 4 3 4 4 4 3 3 3 4 4 5 5 5 4 4 5 7 7 9
Wind_Direction
159 153 152 178 163 170 164 165 160 208 275 289 306 324 338 347 351 360 348 350 0 6 7 6 1 357 358 354 358 354 352 357 349 342 338 326 324 328
166 158 171 188 165 158 162 166 161 173 221 262 265 304 330 344 348 354 339 348 340 335 351 353 352 347 345 345 344 347 347 342 341 339 334 328 321 320
179 172 189 181 167 168 156 154 161 154 198 270 290 316 325 328 345 344 339 337 326 317 328 334 338 336 330 337 343 339 332 333 336 334 333 331 324 313
196 184 197 184 183 186 176 183 197 186 182 233 283 313 300 306 322 328 337 333 326 320 329 328 329 331 324 325 332 331 324 326 329 327 324 323 323 322
196 197 201 181 198 201 189 188 198 191 173 189 250 287 302 323 334 329 335 339 333 332 332 321 315 317 315 317 321 324 322 321 320 320 318 316 314 317
202 204 205 201 204 195 193 190 178 160 151 165 220 270 284 310 336 321 328 329 323 339 333 328 322 317 311 308 312 316 318 316 315 316 314 311 309 308
207 211 216 214 214 200 195 184 173 174 173 178 203 239 264 291 278 273 294 315 304 336 334 334 334 333 323 317 315 315 312 310 309 312 314 310 306 304
207 221 224 216 218 214 212 198 187 182 188 187 204 219 236 234 239 245 257 349 308 320 335 315 344 320 322 320 318 316 314 313 312 314 316 312 307 304
201 203 219 219 199 189 202 203 215 214 200 189 199 216 217 212 197 211 218 226 246 277 326 297 312 306 320 326 329 322 317 317 319 319 318 317 311 302
199 198 196 199 193 163 163 175 227 243 222 209 209 222 222 207 197 198 205 226 270 290 183 269 303 300 317 319 321 325 321 319 320 321 319 317 314 310
205 194 182 189 204 159 144 166 201 267 243 215 213 210 209 199 168 139 137 130 281 284 230 227 284 297 300 299 313 322 319 318 317 316 318 318 317 315
165 217 201 190 192 166 151 163 195 234 231 170 176 353 17 46 159 169 182 187 225 261 255 215 267 316 312 294 311 321 319 313 313 312 313 316 319 322
179 211 238 212 199 187 166 179 216 178 159 154 138 358 2 3 359 224 198 196 211 240 243 195 228 247 259 294 310 316 320 323 323 319 314 314 315 317
187 200 216 197 180 175 172 187 159 118 111 106 83 310 294 288 290 281 265 247 238 241 246 206 212 225 252 284 291 308 316 317 320 317 318 319 314 301
176 176 173 173 169 169 169 158 135 119 121 121 230 273 283 287 284 310 313 300 299 298 291 235 219 233 231 248 270 289 304 308 313 312 320 322 319 319
159 164 156 140 125 136 138 142 138 159 160 185 230 274 320 332 311 289 272 295 303 302 310 285 253 227 244 254 254 273 280 288 309 309 305 305 310 302
150 131 126 127 137 113 92 99 147 162 182 178 192 235 279 294 298 303 292 295 262 280 299 319 312 272 244 241 256 264 274 282 288 299 301 301 298 298
148 162 180 188 191 192 194 211 220 217 216 215 222 231 241 258 289 302 292 265 268 277 283 294 315 326 317 283 238 252 271 279 293 298 292 293 300 304
170 190 196 200 204 204 204 210 223 227 216 215 227 232 236 252 270 277 274 277 283 285 289 289 280 266 283 292 285 246 261 283 293 291 283 276 284 293
196 201 205 203 206 209 211 219 220 217 220 221 227 234 233 241 254 260 255 257 270 283 293 296 273 256 253 267 278 282 263 259 271 280 289 288 287 294
214 215 211 208 212 213 212 213 213 217 222 223 228 232 234 236 249 255 254 255 262 270 275 280 277 281 270 272 281 288 289 277 267 273 286 293 302 307
212 213 214 213 212 211 210 208 213 219 220 223 228 229 233 233 241 250 255 258 258 260 267 280 294 287 254 257 270 282 296 310 303 290 281 272 276 282
213 212 211 213 212 209 208 208 213 225 226 226 226 229 233 238 241 245 253 256 261 265 274 284 293 284 269 265 272 282 292 302 310 308 302 304 283 282
Height
1532 1532 1532 1532 1531 1531 1531 1531 1531 1529 1529 1529 1528 1528 1527 1527 1526 1526 1525 1524 1524 1524 1523 1523 1522 1522 1521 1521 1521 1520 1520 1519 1519 1519 1518 1518 1518 1517
1531 1530 1530 1530 1530 1529 1529 1529 1529 1529 1528 1527 1527 1526 1526 1525 1525 1524 1523 1523 1523 1522 1522 1521 1521 1520 1520 1519 1519 1519 1518 1518 1517 1517 1517 1516 1516 1515
1528 1528 1528 1528 1527 1527 1527 1527 1527 1527 1526 1525 1525 1525 1524 1523 1523 1522 1522 1521 1521 1520 1520 1519 1519 1519 1518 1518 1517 1517 1516 1516 1515 1515 1515 1514 1514 1513
1526 1526 1526 1525 1525 1525 1525 1525 1525 1524 1524 1523 1523 1523 1522 1522 1521 1520 1520 1519 1518 1518 1518 1517 1517 1517 1516 1516 1515 1515 1514 1514 1513 1512 1512 1512 1511 1511
1523 1523 1523 1523 1523 1523 1523 1522 1522 1522 1522 1521 1521 1520 1520 1520 1519 1518 1517 1517 1516 1516 1516 1515 1515 1515 1514 1514 1513 1512 1512 1511 1511 1510 1509 1509 1509 1508
1520 1520 1521 1521 1520 1520 1520 1520 1520 1520 1520 1519 1519 1518 1518 1517 1517 1516 1515 1514 1514 1514 1514 1513 1513 1512 1512 1511 1511 1510 1509 1509 1508 1507 1507 1506 1506 1505
1517 1517 1517 1518 1518 1518 1518 1518 1517 1517 1517 1517 1516 1516 1516 1515 1514 1513 1513 1512 1512 1512 1511 1511 1510 1510 1510 1509 1508 1508 1507 1506 1505 1505 1504 1503 1503 1502
1514 1514 1514 1514 1514 1515 1515 1515 1515 1515 1514 1514 1514 1513 1513 1513 1512 1511 1511 1510 1509 1510 1509 1508 1508 1507 1507 1506 1506 1505 1504 1503 1502 1501 1501 1500 1499 1498
1510 1510 1510 1511 1511 1511 1511 1511 1511 1511 1512 1512 1511 1511 1511 1510 1510 1510 1509 1508 1508 1507 1507 1505 1505 1504 1504 1503 1503 1502 1501 1501 1500 1498 1497 1496 1496 1495
1506 1507 1507 1507 1508 1508 1507 1507 1507 1508 1508 1508 1508 1508 1508 1508 1508 1508 1507 1506 1505 1505 1504 1503 1502 1502 1501 1501 1500 1500 1499 1498 1497 1495 1494 1493 1492 1491
1502 1503 1503 1503 1504 1504 1504 1504 1504 1504 1504 1505 1505 1505 1505 1505 1504 1504 1503 1503 1502 1502 1502 1501 1499 1498 1498 1497 1497 1496 1496 1495 1493 1492 1491 1490 1488 1487
1498 1499 1499 1500 1500 1500 1500 1500 1500 1500 1501 1501 1501 1501 1501 1501 1501 1501 1500 1500 1499 1498 1498 1498 1497 1496 1494 1494 1494 1493 1492 1491 1490 1489 1487 1486 1484 1483
1494 1494 1495 1496 1496 1497 1497 1497 1497 1497 1497 1497 1497 1498 1498 1498 1498 1497 1497 1497 1496 1496 1496 1495 1494 1493 1493 1491 1490 1489 1488 1487 1486 1484 1483 1482 1480 1479
1490 1491 1491 1492 1493 1493 1493 1493 1494 1494 1494 1494 1494 1494 1494 1494 1494 1494 1494 1494 1493 1493 1492 1492 1491 1490 1489 1487 1486 1485 1484 1483 1482 1480 1479 1478 1477 1475
1487 1487 1488 1489 1489 1489 1490 1490 1490 1490 1490 1490 1490 1490 1491 1491 1490 1490 1490 1490 1490 1490 1489 1489 1488 1487 1486 1484 1483 1481 1480 1479 1478 1477 1475 1474 1472 1470
1483 1484 1484 1485 1486 1486 1486 1486 1486 1487 1487 1487 1487 1487 1487 1487 1487 1486 1486 1486 1485 1485 1486 1485 1485 1484 1482 1481 1480 1477 1477 1475 1474 1473 1471 1469 1468 1466
1479 1479 1480 1481 1481 1481 1482 1482 1483 1483 1483 1483 1484 1484 1483 1483 1483 1483 1483 1482 1482 1481 1480 1481 1480 1479 1478 1477 1475 1474 1472 1471 1470 1469 1466 1464 1463 1462
1475 1474 1475 1476 1476 1477 1478 1478 1479 1479 1480 1480 1480 1480 1480 1480 1480 1479 1479 1479 1477 1477 1477 1476 1475 1474 1473 1471 1471 1469 1468 1467 1466 1464 1462 1460 1458 1457
1470 1470 1470 1471 1472 1473 1474 1474 1475 1475 1476 1476 1476 1476 1476 1476 1476 1476 1475 1475 1474 1473 1473 1472 1471 1470 1468 1466 1465 1465 1464 1462 1461 1459 1458 1456 1453 1452
1465 1465 1466 1467 1468 1469 1470 1470 1471 1471 1472 1472 1472 1472 1472 1472 1472 1472 1471 1471 1470 1470 1469 1468 1468 1467 1465 1464 1461 1460 1460 1458 1456 1454 1453 1451 1449 1448
1460 1461 1462 1462 1463 1464 1465 1466 1466 1467 1468 1468 1468 1468 1468 1468 1468 1467 1467 1467 1466 1466 1464 1464 1463 1463 1461 1460 1457 1455 1454 1454 1452 1451 1448 1446 1444 1442
1456 1456 1457 1458 1459 1460 1460 1461 1462 1462 1463 1464 1464 1464 1464 1464 1464 1464 1463 1463 1462 1461 1461 1460 1459 1458 1456 1455 1452 1450 1449 1448 1447 1446 1445 1443 1441 1438
1451 1452 1453 1453 1454 1455 1455 1456 1456 1457 1458 1458 1459 1459 1459 1459 1459 1459 1459 1459 1458 1457 1456 1455 1454 1453 1451 1450 1448 1447 1445 1444 1442 1441 1440 1439 1438 1436